Regional Weather Roundup
Issued by NWS

Home | Current Version | Previous Version | Text Only | Print | Product List | Glossary Off
Versions: 1 2 3 4 5 6 7 8 9 10 11 12 13 14 15 16 17 18 19 20 21 22 23 24 25 26 27 28 29 30 31 32 33 34 35 36 37 38 39 40 41 42 43 44 45 46 47 48 49 50

483
ASUS45 KABQ 301310
RWRNM
NEW MEXICO REGIONAL WEATHER ROUNDUP
NATIONAL WEATHER SERVICE ALBUQUERQUE NM
700 AM MDT SAT APR 30 2016

NOTE: "FAIR" MEANS FEW OR NO CLOUDS BELOW 12,000 FEET AGL WITH NO
       SIGNIFICANT WEATHER OR OBSTRUCTIONS TO VISION.

      THIS PRODUCT IS RELEASED AS TWO VERSIONS.  ONE VERSION NEAR
      THE TOP OF THE HOUR CONTAINING PRELIMINARY DATA FROM ALBUQUERQUE
      AND OTHER STATIONS.  A FINAL VERSION WITH ADDITIONAL DATA IS
      ISSUED ABOUT 10 MINUTES AFTER THE HOUR.

NMZ501-503-504-510>518-301400-
NORTHWEST PLATEAU/NORTHCENTRAL MOUNTAINS

CITY           SKY/WX    TMP DP  RH WIND       PRES   REMARKS
FARMINGTON     FAIR      33  27  78 NE3       29.85R
LOS ALAMOS     FAIR      40  29  65 SW5       29.88R
SANTA FE       FAIR      37  34  89 W5        29.86R WCI  33
TAOS           MOCLDY    32  27  80 SE6       29.86R WCI  26
ANGEL FIRE     CLOUDY    33  27  79 SW10G16   29.86R WCI  25

$$
NMZ402-403-502-505>509-301400-
WESTCENTRAL MOUNTAINS/SOUTHWEST MOUNTAINS

CITY           SKY/WX    TMP DP  RH WIND       PRES   REMARKS
GALLUP         FAIR      35  34  96 CALM      29.90R
GRANTS         FAIR      35  33  94 SE5       29.92R WCI  31
SILVER CITY      N/A     39  28  65 NW7       29.93R WCI  34

$$
NMZ407-409-411-412-301400-
SOUTHERN DESERTS

CITY           SKY/WX    TMP DP  RH WIND       PRES   REMARKS
LORDSBURG      FAIR      41  27  56 SE6       29.90R
DEMING         FAIR      42  28  57 NW3       29.90R
LAS CRUCES     FAIR      45  28  50 W8        29.90S
HOLLOMAN AFB   FAIR      46  24  43 SE5       29.86R
ALAMOGORDO     FAIR      45  23  42 SE3       29.88R
T OR C         FAIR      50  29  44 NW8       29.88R

$$
NMZ519>523-301400-
CENTRAL VALLEYS/CENTRAL HIGHLANDS

CITY           SKY/WX    TMP DP  RH WIND       PRES   REMARKS
ALBUQUERQUE    MOCLDY    43  36  76 S7        29.88R
DOUBLE EAGLE   PTCLDY    37  34  87 SW6       29.88R WCI  33
MORIARTY ARPT  FAIR      37  32  85 W7        29.89R WCI  31
CLINES CORNERS FAIR      35  32  88 W23       29.82R WCI  23
BELEN          FAIR      45  38  77 W8        29.88R
SOCORRO        LGT RAIN  45  36  71 CALM      29.89R

$$
NMZ524>526-539-540-301400-
SOUTHCENTRAL MOUNTAINS

CITY           SKY/WX    TMP DP  RH WIND       PRES   REMARKS
RUIDOSO          N/A     37  32  81 N7        29.93R WCI  32

$$
NMZ527>531-301400-
NORTHEAST HIGHLANDS/NORTHEAST PLAINS

CITY           SKY/WX    TMP DP  RH WIND       PRES   REMARKS
LAS VEGAS      FOG       29  28  96 NE3       29.82R VSB<1/4
RATON          FAIR      32  26  78 N8        29.82R WCI  25
CLAYTON        PTSUNNY   38  30  73 NW15      29.82R WCI  29

$$
NMZ532>537-301400-
EASTCENTRAL PLAINS

CITY           SKY/WX    TMP DP  RH WIND       PRES   REMARKS
TUCUMCARI      FAIR      37  36  96 CALM      29.84R
CANNON AFB     FAIR      38  38 100 S5        29.86R WCI  35
CLOVIS AIRPORT FAIR      37  34  87 CALM      29.87R

$$
NMZ028-029-538-301400-
SOUTHEAST PLAINS

CITY           SKY/WX    TMP DP  RH WIND       PRES   REMARKS
ROSWELL        FAIR      47  32  56 S5        29.83R
ARTESIA        FAIR      48  32  53 W5        29.85R
CARLSBAD       FAIR      48  29  47 S3        29.86R
HOBBS          SUNNY     43  43 100 N6        29.88R


$$




USA.gov is the U.S. government's official web portal to all federal, state and local government web resources and services.